Moose, Wyoming, United States (83012)
Lat: 43.66N, Lon: 110.72W
Wx Zone: WYZ013
Local Info
Past Weather Observations for Saturday, August 30, 2014

NOTE: This archive is for the closest National Weather Service station to Moose. Information may differ from the station used for current weather conditions.

Click here for Long-term Archive

Time Weather Temperature Dewpoint Humidity Pressure Winds Precip Visibility
23:55
Overcast
48°F / 9°C 46°F / 8°C 94% 30.01 in
(1016 mb)
NNW 6.9 mph
(NNW 11 kph)
- 10SM
23:35
Overcast
50°F / 10°C 45°F / 7°C 82% 30.01 in
(1016 mb)
NE 8.1 mph
(NE 13 kph)
- 10SM
23:15
Overcast
50°F / 10°C 46°F / 8°C 88% 30.01 in
(1016 mb)
N 4.6 mph
(N 7 kph)
- 10SM
22:55
Overcast
52°F / 11°C 45°F / 7°C 77% 30.01 in
(1016 mb)
SSW 4.6 mph
(SSW 7 kph)
- 10SM
22:35
Overcast
50°F / 10°C 45°F / 7°C 82% 30.01 in
(1016 mb)
N 9.2 mph
(N 15 kph)
- 10SM
22:15
Mostly Cloudy
50°F / 10°C 46°F / 8°C 88% 30.01 in
(1016 mb)
N 15 mph
(N 24 kph)
- 10SM
21:55
Clear
50°F / 10°C 46°F / 8°C 88% 30.01 in
(1016 mb)
N 10.4 mph
(N 17 kph)
- 10SM
21:35
Clear
48°F / 9°C 46°F / 8°C 94% 29.98 in
(1015 mb)
N 16.1 mph
(N 26 kph)
- 10SM
21:15
Clear
48°F / 9°C 46°F / 8°C 94% 29.98 in
(1015 mb)
N 10.4 mph
(N 17 kph)
- 9SM
20:55
Clear
50°F / 10°C 46°F / 8°C 88% 30.01 in
(1016 mb)
Calm - 10SM
20:35
Partly Cloudy
50°F / 10°C 46°F / 8°C 88% 30.01 in
(1016 mb)
NE 3.5 mph
(NE 6 kph)
- 10SM
20:15
Partly Cloudy
52°F / 11°C 46°F / 8°C 82% 29.98 in
(1015 mb)
N 6.9 mph
(N 11 kph)
- 10SM
19:55
Overcast
52°F / 11°C 46°F / 8°C 82% 30.01 in
(1016 mb)
N 9.2 mph
(N 15 kph)
- 10SM
19:35
Mostly Cloudy
52°F / 11°C 46°F / 8°C 82% 30.01 in
(1016 mb)
NE 5.8 mph
(NE 9 kph)
- 10SM
17:51
Partly Cloudy
55°F / 13°C 48°F / 9°C 77% 29.98 in
(1015 mb)
Calm - 10SM
16:51
Overcast
61°F / 16°C 45°F / 7°C 55% 29.98 in
(1015 mb)
Calm - 10SM
15:51
Overcast
59°F / 15°C 46°F / 8°C 63% 30.01 in
(1016 mb)
Calm - 10SM
15:00
Overcast
61°F / 16°C 46°F / 8°C 59% 30.01 in
(1016 mb)
Calm - 10SM
13:51
Partly Cloudy
66°F / 19°C 45°F / 7°C 46% 29.98 in
(1015 mb)
SSW 19.6 mph
(SSW 32 kph)
- 10SM
12:51
Partly Cloudy
66°F / 19°C 46°F / 8°C 49% 29.98 in
(1015 mb)
SSW 16.1 mph
(SSW 26 kph)
- 10SM
11:51
Overcast
72°F / 22°C 39°F / 4°C 31% 29.98 in
(1015 mb)
S 8.1 mph
(S 13 kph)
- 10SM
10:55
Clear
72°F / 22°C 39°F / 4°C 31% 29.98 in
(1015 mb)
S 4.6 mph
(S 7 kph)
- 10SM
09:54
Clear
68°F / 20°C 46°F / 8°C 46% 30.01 in
(1016 mb)
SW 4.6 mph
(SW 7 kph)
- 10SM
08:55
Clear
61°F / 16°C 45°F / 7°C 55% 30.01 in
(1016 mb)
SSW 5.8 mph
(SSW 9 kph)
- 10SM
07:51
Clear
54°F / 12°C 45°F / 7°C 72% 30.04 in
(1017 mb)
Calm - 10SM
06:55
Partly Cloudy
48°F / 9°C 45°F / 7°C 87% 30.04 in
(1017 mb)
Calm - 10SM
05:51
Partly Cloudy
Showers In Vicinity
45°F / 7°C 43°F / 6°C 93% 30.04 in
(1017 mb)
Calm - 10SM
05:35
Partly Cloudy
45°F / 7°C 43°F / 6°C 93% 30.04 in
(1017 mb)
Calm - 10SM
05:15
Mostly Cloudy
48°F / 9°C 43°F / 6°C 82% 30.04 in
(1017 mb)
Calm - 10SM
04:55
Mostly Cloudy
46°F / 8°C 43°F / 6°C 87% 30.04 in
(1017 mb)
Calm - 10SM
04:35
Overcast
45°F / 7°C 43°F / 6°C 93% 30.04 in
(1017 mb)
Calm - 10SM
04:15
Mostly Cloudy
45°F / 7°C 43°F / 6°C 93% 30.04 in
(1017 mb)
Calm - 10SM
03:55
Partly Cloudy
46°F / 8°C 43°F / 6°C 87% 30.06 in
(1018 mb)
NE 4.6 mph
(NE 7 kph)
- 10SM
03:35
Clear
46°F / 8°C 43°F / 6°C 87% 30.06 in
(1018 mb)
Calm - 10SM
03:15
Partly Cloudy
48°F / 9°C 43°F / 6°C 82% 30.06 in
(1018 mb)
N 6.9 mph
(N 11 kph)
- 10SM
02:55
Partly Cloudy
48°F / 9°C 43°F / 6°C 82% 30.06 in
(1018 mb)
Calm - 10SM
02:35
Mostly Cloudy
48°F / 9°C 43°F / 6°C 82% 30.06 in
(1018 mb)
N 8.1 mph
(N 13 kph)
- 10SM
02:15
Partly Cloudy
48°F / 9°C 43°F / 6°C 82% 30.09 in
(1019 mb)
N 9.2 mph
(N 15 kph)
- 10SM
01:55
Partly Cloudy
48°F / 9°C 45°F / 7°C 87% 30.09 in
(1019 mb)
NW 3.5 mph
(NW 6 kph)
- 10SM
01:35
Mostly Cloudy
50°F / 10°C 45°F / 7°C 82% 30.09 in
(1019 mb)
N 5.8 mph
(N 9 kph)
- 10SM
01:15
Partly Cloudy
48°F / 9°C 45°F / 7°C 87% 30.09 in
(1019 mb)
N 4.6 mph
(N 7 kph)
- 10SM
00:55
Mostly Cloudy
48°F / 9°C 43°F / 6°C 82% 30.09 in
(1019 mb)
N 4.6 mph
(N 7 kph)
- 10SM
00:35
Clear
48°F / 9°C 43°F / 6°C 82% 30.09 in
(1019 mb)
N 8.1 mph
(N 13 kph)
- 10SM
00:15
Clear
48°F / 9°C 43°F / 6°C 82% 30.09 in
(1019 mb)
N 4.6 mph
(N 7 kph)
- 10SM
Time Weather Temperature Dewpoint Humidity Pressure Winds Precip Visibility


Weather for websites

WeatherForYou.com, LLC is not responsible for any damages or problems caused by this service. Current weather conditions are obtained from the closest station including government and personal stations which may have varying degrees of accuracy. Weather forecasts are derived from the NOAA NDFD. Like all things, this site belongs to Jesus Christ... He just trusts me to maintain it. If you have any questions or comments email webmaster@weatherforyou.com

Copyright © 2014, WeatherForYou.com LLC. All rights reserved.